Location: Aufkirchen
(47.9603°N, 11.3653°E)
Time: 16:11:11
(UTC+01:00)

Transit 4A - Pass Details

Date: 28 November 2020
Orbit: 864 x 980 km, 66.8° (Epoch: 26 January)

Event Time Altitude Azimuth Distance (km) Brightness Sun altitude
Rises 14:07:16 0° 320° (NW) 3,691 10.8 15.2°
Reaches altitude 10° 14:10:49 10° 339° (NNW) 2,739 10.0 14.9°
Maximum altitude 14:15:04 18° 21° (NNE) 2,198 9.4 14.5°
Drops below altitude 10° 14:19:16 10° 63° (ENE) 2,709 9.9 14.1°
Sets 14:22:44 0° 82° (E) 3,636 10.6 13.8°
